STARLINK-38255, 100269

Orbit data source: Space-Track

STARLINK-38255, 100269 is a payload satellite owned by SpaceX/Seattle (US) in SSO that was launched on Sat, 08 Aug 2026 UTC launched from the Air Force Western Test Range (AFWTR). Payload-class satellites include a variety of spacecraft equipped with specific instruments for various scientific and technological missions. These include communications satellites like Starlink; space stations such as the ISS; scientific satellites like the Hubble; Earth observation satellites from companies like Planet Labs, Umbra, and HawkEye 360; GPS; miniature CubeSats for education and research; and military/defense satellites.

Not visible in the next 10 days
Identifier
100269, 2026-181Z
Orbit
SSO
Country
Flag of USUS
Related business
Manufacturer
SpaceX/Seattle
Mission
Operational spacecraft
Bus & Motor
STARLINK V2MO, Unknown motor
Mass
575 kg wet, ~530 kg dry
Launch date (UTC)
2026-08-08 (1 month ago)
Launch vehicle
Unknown
Launch site
Air Force Western Test Range (AFWTR)
Object type
Payload
Rocket body
Debris
Shape & HBR
BOX + PAN, 17.7 m
Radar Cross Section
RCS unknown

Expand to show TLE details & history
Last TLE update: 1 day ago

TLE from 1 day ago
0 STARLINK-38255
1 A0269U 26181Z   26262.37813521  .00151298  00000-0  99643-3 0  9993
2 A0269  97.2865 305.9153 0000587 276.3738  83.7460 15.75211992  7779
Epoch: 2026-09-19T09:04Z
TLE epoch observation values (Epoch: 2026-09-19T09:04:30.882Z)
Latitude
-0.00004°
Longitude
171.4991°
Altitude
347.153 km
Speed
7.701 km/s
True Right ascension
20h 23m 39s
True Declination
0° 00' 00"
Sunlit
Object was in full shadow at epoch
Visualization orbit readout
Latitude
Unknown
Longitude
Unknown
Altitude
Unknown
Speed
Unknown
Apparent Right ascension
Unknown
Apparent Declination
Unknown
Sunlit
N/A
Visualization observer readout
Local Sidereal Time
10:56:27
Azimuth
Unknown
Elevation
Unknown
Doppler factor
Unknown
Orbital elements
Apogee altitude
341.31 km
Perigee altitude
340.521 km
Semi-major axis
6,719.052 km
Eccentricity
0.00006
Inclination
97.2865°
RAAN
305.9153°
Arg. of periapsis
276.3738°
True anomaly
83.75269°
Mean anomaly
83.746°
Eccentric anomaly
83.74934°
Mean motion
3.94077 °/min
Orbital period
91.35 mins
BSTAR
0.00099643
Loading maneuver chart data...
Computing Atmospheric mass density...
Loading historical data...
Loading historical data...
Loading historical data...
Loading historical data...
Loading historical data...
Loading historical data...
Loading historical data...

Documentation

Showing up to 5 results
|